GFSGL_sfc_thetae_090.txt.gz
Theta_e
316 317 317 318 317 319 318 315 314 313 313 313 314 314 314 315 316 315 316 317 315 316 316 315 314 315 314 314 314 314 313 313 309 312 313 313 311 313 313 314 314 313 312
317 317 316 317 317 318 318 318 318 316 314 314 313 313 314 314 315 315 314 315 314 314 315 315 314 315 314 315 314 314 313 314 312 309 313 313 311 314 315 315 313 314 314
317 316 316 316 315 316 318 319 319 319 318 316 314 313 313 313 315 316 316 315 315 315 315 314 314 315 314 314 315 314 314 314 313 311 311 314 314 311 311 312 314 315 314
316 315 315 316 315 315 316 318 319 319 318 318 318 316 315 314 313 314 314 314 314 314 315 315 315 315 314 314 313 313 313 313 312 311 311 311 312 312 311 311 310 310 312
318 317 316 316 316 317 316 317 318 318 317 317 317 317 317 316 315 313 314 314 313 313 314 313 314 313 307 310 314 313 312 310 310 310 309 310 310 310 307 311 308 311 312
304 304 304 306 314 315 317 318 318 317 318 318 317 316 315 316 305 301 308 313 313 312 312 312 313 305 305 299 300 302 309 311 309 309 309 308 309 310 311 310 309 308 306
296 297 298 300 301 302 304 304 305 309 316 318 318 318 317 317 302 301 298 313 314 313 312 312 312 312 305 310 301 296 297 296 299 311 309 308 308 310 310 309 309 308 307
291 290 291 293 295 296 296 297 298 300 302 305 307 314 317 318 296 297 297 309 313 314 314 313 313 313 313 311 309 308 304 305 304 303 307 310 311 312 310 309 309 307 291
287 287 287 288 289 290 291 292 293 295 297 300 298 293 291 293 288 289 291 307 310 312 314 314 314 312 307 301 307 306 305 303 289 291 289 287 287 287 288 299 294 289 286
286 285 285 286 286 286 286 287 290 293 294 294 290 288 286 287 286 288 289 295 303 309 310 311 296 291 288 292 304 307 305 303 286 283 282 282 283 283 283 283 286 295 286
285 284 284 285 285 285 285 286 287 289 289 288 286 284 284 284 285 287 288 291 290 287 285 285 285 286 287 288 288 290 289 285 282 281 280 280 279 279 279 280 280 281 278
284 283 283 283 284 284 284 284 285 285 285 283 283 282 282 282 284 285 285 285 286 284 282 282 283 284 284 285 284 284 284 282 280 278 278 277 277 277 277 278 278 278 279
282 281 281 281 281 282 282 282 282 282 282 281 280 279 280 281 282 283 283 283 282 281 281 281 281 281 280 280 281 281 280 280 278 276 275 274 275 276 278 278 278 276 275
281 280 281 279 278 278 279 280 280 281 280 280 279 279 279 280 280 280 280 279 280 279 278 278 278 278 277 276 276 277 276 276 275 274 273 274 275 274 274 275 275 275 272
280 280 279 279 279 278 278 278 279 280 281 279 279 279 278 278 279 281 280 278 276 277 276 275 274 274 273 273 273 274 275 274 273 274 273 272 272 272 272 274 273 272 270
278 278 276 276 276 276 276 276 279 279 280 281 281 279 279 280 281 281 280 279 278 278 274 272 271 271 271 271 271 271 271 271 272 272 272 271 270 270 270 271 271 270 269
274 275 274 273 273 273 271 271 269 273 276 278 279 279 280 279 279 279 278 277 276 274 270 270 269 269 270 270 269 270 269 270 271 270 270 270 270 269 269 268 269 269 268
271 271 270 270 269 269 268 267 267 267 266 267 272 274 277 277 277 276 275 273 269 270 269 268 268 268 268 268 268 268 268 268 268 268 267 267 268 268 267 267 267 267 266
271 269 266 267 267 266 267 267 266 266 265 265 266 267 268 272 272 272 271 266 265 266 267 267 267 267 267 268 267 267 266 265 265 265 265 265 266 266 265 265 265 265 265
268 269 267 267 266 266 266 266 265 264 263 263 262 263 264 265 263 262 262 263 263 263 264 264 264 265 265 265 264 265 264 264 264 264 263 263 264 264 263 263 264 263 264
267 268 267 268 267 267 266 265 264 263 262 262 260 261 262 262 260 260 260 260 260 260 260 261 261 262 263 262 262 260 259 259 260 260 261 260 259 260 262 262 262 263 263
267 268 268 267 266 265 265 264 263 262 262 261 261 261 260 260 260 260 259 259 259 260 260 260 260 260 260 260 259 258 257 256 257 257 258 259 259 259 260 259 259 259 261
266 265 265 265 265 262 262 263 261 260 259 259 260 260 259 258 258 258 257 257 257 257 258 259 258 258 257 256 257 257 257 256 255 253 254 255 258 258 257 258 258 259 258
264 263 264 261 261 260 257 257 257 259 259 256 254 256 256 256 254 255 256 253 253 252 252 253 256 256 257 253 254 256 256 253 254 253 251 254 256 256 256 257 257 255 256
261 259 259 259 258 255 254 255 254 253 253 252 252 252 255 254 254 251 249 250 251 251 253 252 253 253 252 251 253 255 253 252 251 251 253 253 253 252 254 255 255 257 256
262 261 259 258 256 255 253 251 249 249 249 249 248 247 249 252 251 248 250 252 252 254 254 253 254 253 253 256 256 253 251 251 251 249 251 254 253 253 254 254 254 256 257

GFSGL_sfc_thetae_096.txt.gz
Theta_e
322 322 322 321 322 324 325 324 324 323 323 322 321 318 315 315 314 313 313 313 314 318 319 317 318 321 317 321 321 321 318 315 311 313 319 319 321 323 323 324 322 320 315
321 321 321 321 321 322 322 324 324 322 322 323 323 319 318 316 315 313 313 314 315 317 318 316 316 317 318 316 317 318 316 315 312 310 314 317 322 323 323 322 324 324 326
321 322 321 320 321 320 321 326 325 325 324 324 324 322 321 320 318 318 318 318 319 319 318 314 315 316 317 317 316 314 316 317 318 318 319 321 322 324 323 325 326 326 324
319 320 319 319 319 320 323 324 322 323 323 324 324 325 324 323 323 324 323 324 323 320 319 318 317 317 319 321 323 324 323 324 323 319 320 320 322 324 324 322 322 325 325
312 312 316 319 320 320 323 323 323 323 322 322 321 321 322 322 320 321 321 320 319 319 320 320 321 318 311 314 322 324 324 323 322 320 318 320 320 320 320 322 321 323 324
296 297 300 302 304 305 307 307 313 314 318 321 321 322 321 302 290 291 301 321 320 320 320 322 323 311 312 301 300 302 312 319 317 316 316 314 318 320 321 321 321 315 310
293 293 293 295 297 298 300 300 301 303 305 301 300 296 292 291 289 289 289 306 317 320 321 320 319 318 310 320 305 298 299 297 297 314 315 315 314 315 315 314 314 314 313
291 290 292 292 292 294 295 296 299 299 295 293 293 294 291 288 287 288 288 300 305 309 305 296 298 301 296 294 306 313 311 310 308 307 308 301 290 288 291 296 297 299 302
287 288 291 290 290 292 292 294 295 294 291 289 289 288 288 286 287 287 292 300 296 291 288 287 289 288 287 288 295 301 304 298 287 287 286 285 284 284 284 292 292 289 294
286 287 289 289 290 289 291 293 293 291 289 288 287 287 286 287 285 286 293 296 290 287 284 284 284 285 285 286 290 292 293 286 285 284 281 281 280 280 280 281 281 286 288
286 288 287 287 287 289 289 290 291 291 290 289 287 287 287 285 285 285 287 290 287 284 283 283 283 283 283 284 284 284 283 282 280 280 279 279 279 278 279 279 280 280 280
285 284 285 285 286 287 287 288 289 289 288 288 287 286 286 286 284 284 284 284 285 284 282 283 283 282 282 282 282 282 281 281 281 280 279 278 279 279 280 280 281 282 282
286 284 285 284 284 285 285 286 286 286 286 285 284 284 284 285 285 283 282 282 282 283 283 282 282 282 283 282 282 283 283 283 282 281 279 279 281 282 284 284 283 283 281
283 284 284 282 282 283 283 283 283 284 283 283 283 283 283 283 283 284 284 285 283 284 283 284 283 282 282 282 283 283 283 283 283 281 281 282 283 282 281 282 281 282 281
283 282 283 282 280 280 280 280 280 281 281 281 281 282 281 280 280 281 282 282 283 283 284 285 284 283 282 281 281 281 281 281 280 281 280 281 281 281 280 281 281 280 278
283 283 282 283 282 281 280 278 278 279 280 280 280 281 281 280 279 279 279 280 281 282 283 281 280 280 279 279 279 279 279 278 279 280 280 279 278 278 279 279 279 278 277
281 282 282 282 282 281 281 281 278 277 276 277 278 278 278 278 278 278 279 279 280 282 280 279 278 278 278 278 278 278 277 277 278 278 278 277 277 277 277 277 277 277 275
279 279 281 281 281 280 280 279 279 279 277 276 274 275 276 276 276 277 279 280 279 279 278 277 277 277 277 276 276 276 276 276 276 276 276 276 276 276 275 275 275 274 275
280 280 280 279 279 279 279 279 279 278 277 277 277 277 275 275 275 275 276 277 277 276 276 275 276 276 276 275 275 275 274 274 274 275 275 274 275 275 273 274 273 271 272
278 276 278 279 279 279 278 278 277 277 276 275 273 272 276 276 275 274 274 274 274 274 274 274 274 274 274 274 274 274 274 273 273 273 273 273 273 273 273 272 272 272 272
279 278 276 278 278 277 277 276 276 275 274 273 270 269 269 273 272 272 271 272 272 272 272 272 272 272 272 272 272 272 271 272 271 271 272 272 271 272 272 272 272 272 271
278 278 277 276 276 276 275 275 274 273 273 272 272 269 269 272 271 271 270 270 270 271 271 271 270 270 269 270 270 270 269 269 269 270 270 270 271 272 272 271 271 271 271
276 276 275 275 274 273 273 273 273 272 271 271 271 270 270 270 270 270 269 269 269 269 269 270 269 268 269 268 269 268 267 267 267 266 268 269 270 271 271 271 270 270 269
275 274 273 272 273 273 272 272 270 268 270 270 270 269 269 268 268 267 267 268 268 268 268 267 267 265 265 267 268 268 267 265 266 267 265 267 268 269 270 269 269 267 268
273 272 272 272 271 271 271 270 270 270 270 269 269 269 269 268 268 268 267 267 266 267 265 266 266 265 265 263 263 263 262 261 262 261 266 266 266 265 266 267 267 268 267
271 271 271 271 270 270 270 269 269 269 269 269 269 268 268 267 267 267 267 265 266 266 263 266 265 263 263 264 264 262 260 260 261 260 262 266 266 267 267 267 265 267 267

GFSGL_sfc_thetae_102.txt.gz
Theta_e
325 325 325 327 326 327 325 326 325 325 323 321 319 318 317 318 318 318 318 318 317 317 317 317 318 318 316 317 317 317 316 315 311 312 314 316 316 315 318 318 320 322 321
324 323 323 324 325 325 325 325 326 324 322 321 320 318 317 317 317 317 316 316 316 316 316 316 316 318 316 317 317 316 315 316 313 310 313 313 312 313 314 316 317 319 319
322 322 321 321 322 322 324 325 325 324 323 321 320 318 316 316 315 315 315 313 314 315 314 314 314 313 312 313 314 315 315 316 313 311 311 313 313 313 314 315 316 316 318
320 320 319 319 320 321 324 324 323 323 323 322 321 319 318 316 316 316 315 315 313 313 314 314 314 314 313 312 313 313 314 313 313 311 311 312 313 315 316 314 314 318 319
297 300 304 313 320 321 321 323 323 322 322 322 322 320 318 312 300 307 315 315 315 314 315 316 315 313 308 311 314 314 313 311 312 312 311 312 313 314 314 317 317 317 317
292 293 296 300 302 305 307 311 310 308 307 304 304 300 296 292 289 290 296 314 315 316 317 318 318 306 305 298 297 297 304 312 312 312 313 313 314 315 310 310 310 309 308
290 291 292 294 295 297 297 297 297 298 296 294 293 291 289 289 289 290 290 307 301 298 298 300 302 295 292 297 297 294 290 290 288 303 306 304 297 289 291 298 304 302 301
288 289 291 291 292 292 292 291 290 291 291 290 289 288 288 288 288 290 292 294 290 288 288 290 289 288 288 289 295 292 287 286 287 288 286 284 284 284 286 291 292 293 294
286 287 288 290 289 289 288 288 289 288 287 287 287 286 286 286 288 291 290 289 286 285 286 286 286 286 286 289 297 288 284 283 285 285 285 284 284 284 284 289 285 286 287
285 285 287 288 289 287 286 286 288 286 285 286 284 285 285 285 287 290 290 287 285 284 284 284 285 285 285 287 288 285 281 281 281 281 281 282 283 283 283 282 282 283 282
285 286 285 286 286 285 285 286 285 285 285 285 284 284 284 284 285 286 287 286 284 283 282 282 283 285 284 284 284 283 282 282 282 282 282 282 282 282 282 282 281 280 280
284 285 284 284 284 285 285 286 286 285 285 284 284 284 284 283 284 285 285 285 285 283 282 283 283 284 284 285 284 284 284 284 284 282 282 281 281 282 281 278 277 277 277
283 281 280 280 282 283 281 281 284 285 284 283 282 281 281 282 284 284 284 284 284 282 282 283 284 284 284 283 284 283 284 283 282 281 280 280 281 282 282 283 280 278 275
284 282 280 279 278 279 280 280 279 280 280 280 280 279 279 279 281 283 283 284 285 284 283 283 282 282 282 281 281 282 282 282 281 281 280 281 282 281 277 276 275 276 275
284 284 282 280 278 277 278 278 278 279 280 278 278 278 277 278 280 282 283 282 283 283 282 282 281 280 280 280 279 279 279 280 279 280 279 277 275 275 274 275 276 275 272
283 282 283 283 282 278 276 276 280 279 280 280 280 279 279 281 282 283 283 283 283 283 280 278 278 278 277 277 277 275 275 275 276 276 274 275 274 274 276 277 276 274 272
281 282 282 282 281 281 281 278 274 277 279 279 279 280 280 281 282 282 282 282 282 281 277 277 276 276 275 275 275 274 274 274 275 275 274 274 275 275 274 273 274 274 273
281 280 280 280 280 280 280 280 280 278 275 275 278 277 279 279 280 281 281 280 276 277 276 275 274 274 274 274 274 273 272 272 273 273 271 271 270 272 271 272 271 267 270
280 280 281 281 281 281 280 280 279 278 276 275 275 277 278 278 278 279 279 275 273 273 273 273 273 273 273 272 272 271 269 268 268 267 267 269 267 269 267 268 269 267 267
280 279 280 280 280 280 279 278 278 276 274 271 270 270 274 274 272 272 272 272 272 272 272 271 271 271 270 272 268 268 269 267 268 268 267 265 265 267 267 266 265 265 268
280 279 278 279 278 278 277 277 276 275 273 270 268 268 270 272 271 270 270 270 270 270 270 270 268 267 269 268 270 267 266 266 266 268 267 266 265 265 267 266 266 268 269
278 278 277 276 276 275 276 276 275 274 273 272 271 270 270 271 270 269 269 267 267 269 269 268 268 268 267 267 267 266 265 264 264 262 264 266 267 267 266 268 265 263 267
277 276 276 275 276 274 274 273 273 273 272 271 271 270 270 268 268 269 267 267 268 266 265 266 264 264 265 267 267 264 262 261 262 263 260 262 264 265 265 266 263 264 261
276 275 274 273 272 273 273 272 269 267 270 271 270 269 268 267 268 266 264 264 267 264 263 264 264 262 261 261 262 262 261 258 260 259 258 262 264 262 260 261 264 260 263
274 274 273 273 272 272 272 271 271 270 270 269 269 269 269 268 268 267 266 264 262 264 264 265 261 262 260 261 260 259 256 257 255 255 257 258 261 259 262 263 263 261 260
272 272 272 272 271 271 270 270 269 268 268 268 268 267 267 266 265 265 264 263 261 262 262 263 263 260 260 261 260 258 256 256 254 255 255 259 261 261 261 258 258 261 261

GFSGL_sfc_thetae_108.txt.gz
Theta_e
301 313 323 324 322 322 323 323 322 321 319 317 318 319 319 319 320 319 320 321 320 320 321 320 319 319 317 315 315 315 314 314 310 312 314 315 316 316 317 317 318 318 316
299 304 320 321 321 321 322 321 321 319 319 318 318 318 318 318 318 318 318 319 320 319 319 319 318 318 317 316 315 314 314 315 312 310 312 313 313 315 317 315 317 319 318
296 298 302 305 319 319 321 320 321 319 319 319 319 318 317 317 317 317 318 318 318 319 319 318 318 318 316 316 316 315 314 315 314 311 311 313 314 313 313 313 312 313 315
294 295 295 297 303 316 321 321 320 320 319 319 319 319 318 318 317 317 317 317 317 316 317 318 318 318 317 315 315 314 314 313 313 312 312 311 311 312 311 310 308 310 312
290 291 292 294 296 299 307 322 321 320 320 320 318 318 316 315 304 313 317 316 316 316 316 316 317 314 307 311 316 315 312 311 311 311 308 306 306 307 306 310 310 311 306
289 289 290 292 292 294 295 298 300 300 300 299 298 297 296 295 290 292 298 315 314 314 313 314 315 304 298 295 294 291 302 312 310 308 308 304 305 307 304 308 309 309 305
286 288 289 289 289 290 291 290 291 292 294 291 291 293 292 292 291 292 294 303 298 297 298 303 298 295 296 293 289 289 288 287 287 304 307 300 298 292 292 296 300 301 297
285 285 286 288 287 288 287 286 286 287 287 287 288 289 289 289 289 289 289 290 289 288 289 290 291 291 291 293 290 287 286 286 287 287 287 285 285 286 289 292 293 291 287
282 283 284 285 286 286 286 285 285 286 285 285 286 286 286 287 288 288 288 287 285 285 286 287 288 288 290 291 288 285 284 283 286 287 286 286 285 286 287 289 286 287 285
281 281 283 284 283 284 285 285 285 285 284 284 284 284 286 285 287 288 287 286 284 284 284 285 286 287 288 287 286 284 281 281 282 283 283 283 283 283 282 283 284 285 283
281 281 281 282 282 283 284 284 284 284 283 283 282 283 284 284 286 287 286 285 284 283 283 283 284 285 286 286 285 284 282 283 283 283 282 282 281 280 280 280 279 279 279
279 278 279 280 281 281 281 282 282 282 281 281 281 281 283 283 285 285 285 285 284 282 281 282 284 285 285 285 284 284 283 282 282 281 280 279 280 279 276 277 277 277 277
279 278 278 279 279 280 280 280 279 280 280 279 280 280 281 282 283 284 284 284 283 281 282 282 282 282 282 282 283 283 282 281 280 279 278 277 275 274 278 278 279 278 278
279 278 277 278 278 278 279 279 279 278 278 279 279 279 280 281 282 282 282 283 283 282 281 280 279 279 278 278 279 279 279 278 278 277 276 276 276 277 276 275 276 276 274
281 281 278 277 277 277 278 278 279 280 280 278 278 280 280 280 282 283 282 281 280 280 280 279 277 276 275 276 276 276 276 276 275 275 275 275 275 275 275 276 275 274 273
279 279 279 277 276 276 276 276 280 280 281 282 282 280 281 283 283 283 283 282 281 280 276 274 274 274 273 273 273 274 274 274 274 275 274 275 274 274 274 274 275 273 272
276 278 278 278 279 275 274 273 271 275 279 279 280 281 282 281 281 281 280 280 279 277 273 273 272 272 272 272 272 272 272 273 274 273 272 272 274 274 273 272 272 272 272
274 275 273 272 273 273 271 270 268 267 266 267 273 278 279 279 279 279 278 276 272 273 272 271 271 271 272 271 271 270 270 270 270 270 269 269 269 271 270 270 269 267 270
275 276 274 271 271 270 270 268 266 265 265 265 267 270 271 276 275 275 274 270 269 268 269 269 269 269 269 268 267 266 266 266 265 265 265 266 262 266 266 267 267 266 266
269 271 269 268 269 270 269 268 266 265 265 265 265 262 264 267 266 265 266 266 266 266 266 266 267 266 266 266 263 263 264 264 263 264 262 261 261 264 263 262 263 264 266
269 268 268 269 269 269 268 267 264 263 263 264 264 261 263 264 262 261 263 263 265 265 263 264 263 264 264 264 263 261 259 258 260 259 260 261 258 261 263 262 262 265 265
270 271 271 268 269 268 268 268 266 265 265 264 262 265 263 261 262 262 260 256 256 261 262 260 261 263 261 260 259 254 254 254 254 255 257 258 259 259 261 260 259 258 261
270 268 269 269 270 265 264 268 264 263 264 261 261 262 260 257 257 260 258 253 257 257 256 257 257 258 257 254 255 255 254 253 253 251 251 253 257 258 254 257 257 257 257
268 266 270 265 263 263 260 256 260 264 263 259 255 256 256 254 252 252 252 253 252 252 251 253 256 257 256 250 252 254 255 251 252 251 249 249 254 258 254 256 256 254 254
262 262 265 264 264 263 263 261 260 259 261 261 262 259 261 258 257 251 250 251 252 252 254 252 253 255 254 252 253 254 253 251 249 250 250 251 251 251 253 253 252 255 254
264 262 262 263 261 261 261 260 259 260 260 258 257 256 255 255 255 252 251 252 253 255 256 254 254 255 255 254 254 253 251 252 250 250 247 251 250 250 250 251 252 252 255

GFSGL_sfc_thetae_114.txt.gz
Theta_e
294 297 299 300 303 311 316 327 325 324 322 321 323 323 323 322 322 321 321 320 319 319 320 320 319 321 319 318 317 317 315 314 309 311 315 316 314 316 316 316 316 316 316
293 295 296 297 299 300 303 306 325 323 323 322 322 321 321 320 320 319 318 318 317 317 318 319 319 318 317 317 316 315 314 314 311 309 311 312 314 316 316 314 315 316 317
291 292 293 294 295 295 297 300 303 321 322 321 321 320 319 319 318 317 317 317 318 318 319 319 319 318 317 317 316 315 315 314 314 311 310 313 314 315 315 316 315 313 303
289 289 290 291 292 293 294 295 296 299 311 320 320 320 320 319 318 318 316 317 318 318 319 319 320 318 317 316 316 315 315 314 313 312 311 311 312 313 313 312 310 310 300
287 287 288 290 291 291 292 293 294 293 293 296 311 319 318 318 313 317 317 316 316 316 317 318 319 316 309 312 316 315 315 314 313 312 310 311 310 308 310 312 312 309 301
285 285 287 288 288 288 289 290 291 291 290 290 291 293 294 294 291 293 308 316 316 315 315 315 316 306 304 299 300 302 310 314 312 312 312 310 311 312 311 311 311 305 299
283 284 284 286 286 287 287 287 287 288 289 289 289 288 288 288 289 290 293 309 309 303 303 309 306 301 301 297 290 290 289 288 290 312 312 312 311 311 309 306 308 307 300
281 281 282 283 284 285 285 285 285 285 286 286 286 287 287 287 288 288 288 291 290 289 290 292 296 295 295 295 291 288 286 286 287 289 290 288 287 290 299 301 301 288 287
278 279 280 281 282 282 282 283 284 284 283 284 284 285 285 285 287 287 287 286 285 285 287 289 290 291 290 292 289 286 285 284 286 286 286 286 287 287 289 294 290 291 285
277 278 278 280 280 281 281 281 283 284 283 283 283 283 284 284 286 287 287 285 284 284 285 285 286 287 287 287 287 285 282 282 282 282 282 282 283 283 282 284 287 287 284
277 278 278 278 279 279 280 281 282 282 283 282 282 282 282 283 284 285 285 283 283 283 283 283 284 286 286 286 285 284 283 283 282 280 280 280 280 279 279 280 280 284 284
278 277 278 278 278 279 278 278 279 280 281 281 280 281 282 282 284 284 284 283 282 280 280 281 283 284 284 284 283 283 283 282 282 279 277 277 277 277 277 278 278 278 279
279 277 277 278 279 279 279 279 278 278 278 279 280 279 280 281 281 282 283 282 281 279 280 281 281 281 280 280 281 281 280 280 279 277 276 276 277 278 278 278 278 279 278
279 278 277 276 276 278 279 279 279 279 278 278 278 278 279 280 280 280 280 279 280 279 278 278 278 278 278 277 278 278 278 277 277 276 276 277 278 277 276 277 276 276 275
279 278 278 276 276 275 276 278 277 279 280 278 278 278 278 277 279 281 280 279 277 277 277 276 275 275 274 275 275 275 276 276 276 276 275 275 275 276 275 276 275 275 273
277 277 277 277 274 274 273 272 278 278 279 280 280 279 279 280 280 280 280 279 278 278 274 273 272 272 272 272 272 272 273 273 275 275 275 275 274 275 274 275 275 274 272
276 276 275 274 274 273 271 269 267 270 276 276 278 278 278 278 279 278 278 277 276 274 270 270 269 270 270 271 271 270 269 271 272 272 273 273 274 273 274 273 273 273 272
269 269 268 268 266 265 262 262 261 261 260 263 269 273 276 276 276 276 275 273 269 269 269 268 267 268 268 268 268 268 268 268 269 269 269 270 271 271 271 270 271 271 271
270 267 262 261 263 263 260 259 259 261 262 261 263 266 265 272 272 272 270 265 265 265 266 266 266 266 265 265 264 264 264 264 264 265 266 266 267 269 268 269 268 267 268
265 266 264 261 261 262 261 262 262 262 262 261 262 260 261 263 261 260 261 260 262 263 264 264 264 263 262 263 261 261 262 262 263 264 263 263 265 267 266 267 267 267 267
265 267 265 266 265 263 262 261 260 260 259 259 257 256 259 261 258 259 260 259 259 260 260 261 260 260 261 260 261 259 258 257 259 260 261 262 260 263 265 266 266 266 266
267 268 268 266 266 264 264 265 263 262 262 261 259 261 258 256 258 258 257 254 253 258 260 259 259 258 258 258 257 255 254 254 256 257 258 259 261 261 263 262 263 263 264
267 266 266 266 265 263 261 265 264 262 258 257 258 258 257 253 253 256 254 250 255 254 255 256 255 256 255 253 255 256 255 255 254 252 255 257 260 260 259 261 261 261 261
265 263 265 262 260 262 257 257 261 263 261 257 253 254 254 252 250 251 250 250 253 251 250 251 255 256 255 252 254 256 256 253 254 253 252 255 258 258 259 259 259 257 258
259 257 257 259 257 255 256 259 258 258 257 258 257 255 258 254 254 250 249 251 254 253 254 253 254 254 253 252 253 254 253 251 251 250 253 254 254 255 256 257 256 259 257
261 260 259 258 258 255 253 253 255 257 257 256 255 256 257 257 256 252 252 252 253 254 254 253 254 253 253 253 254 253 251 251 250 248 250 255 255 255 255 256 255 257 257

GFSGL_sfc_thetae_117.txt.gz
Theta_e
294 295 297 298 300 303 306 312 312 326 326 326 327 327 327 325 325 325 326 326 325 324 324 324 323 325 323 323 322 322 319 318 313 314 317 317 318 318 318 321 323 322 322
292 293 294 295 296 298 298 301 305 308 326 325 325 324 325 326 326 324 323 323 323 321 321 322 321 321 322 322 321 318 317 318 315 310 313 314 315 317 318 318 320 321 322
291 291 291 292 293 294 295 297 299 301 305 319 324 323 323 323 322 322 323 322 321 321 320 319 319 321 320 321 318 317 316 316 315 312 312 314 315 316 316 318 320 321 308
289 289 289 290 291 291 293 294 295 297 297 299 301 316 321 320 320 320 321 320 320 320 322 320 322 321 320 318 317 318 316 314 314 313 312 312 314 314 316 314 315 311 305
287 287 287 289 290 290 290 291 293 293 294 295 294 294 295 294 293 294 306 318 319 319 320 320 321 318 309 313 318 317 316 314 313 312 311 311 312 310 312 315 314 308 302
284 285 287 287 287 287 288 288 289 289 290 291 291 291 290 291 289 290 293 307 318 317 316 318 320 308 308 300 300 303 313 315 314 312 312 311 311 313 313 312 311 304 300
283 283 284 286 286 286 286 287 286 287 287 287 288 288 288 288 289 289 291 292 297 305 306 309 313 306 305 301 291 290 289 289 291 314 312 313 312 313 313 311 311 309 306
281 281 282 283 285 285 285 285 285 285 285 285 285 286 286 286 288 288 288 288 287 287 289 291 294 297 296 297 294 290 287 287 288 289 292 291 290 295 308 312 312 300 289
279 280 280 282 282 283 283 284 285 285 284 283 283 284 284 284 287 287 288 288 287 285 285 286 288 289 289 292 290 286 284 284 287 287 287 287 287 287 288 296 292 293 286
279 279 280 281 281 281 282 283 285 285 285 285 284 284 284 284 285 286 286 286 285 285 284 284 285 286 286 287 288 287 283 284 283 283 283 282 283 283 283 285 288 293 286
281 281 281 281 281 282 283 283 283 284 285 284 284 284 284 284 284 284 284 282 282 281 281 282 283 285 285 285 285 284 282 282 281 281 280 281 280 279 279 280 281 285 285
281 280 280 281 281 282 282 283 283 282 282 282 282 283 284 284 283 284 283 282 282 281 280 280 281 283 283 282 282 283 282 281 280 279 278 277 277 277 278 279 279 279 280
282 280 280 280 281 281 281 281 282 282 280 280 281 281 280 282 283 283 282 282 281 281 281 281 281 281 281 280 281 280 280 280 279 277 276 276 277 278 279 279 280 280 279
280 280 280 280 280 280 280 281 280 281 280 280 279 280 280 280 281 281 283 283 282 281 281 281 280 279 279 278 279 280 280 279 279 277 276 277 278 278 277 278 277 278 277
280 280 280 280 279 279 279 278 279 280 280 279 279 279 279 278 279 280 280 280 281 279 281 280 279 279 277 277 277 277 278 279 279 279 278 278 278 278 277 278 279 279 277
278 278 278 279 279 278 277 278 277 277 278 278 279 279 279 279 279 279 279 278 277 278 279 278 277 277 276 276 274 274 275 275 277 278 278 278 278 277 276 277 278 277 276
276 277 278 277 277 276 275 274 274 277 275 275 275 277 277 277 277 277 277 276 276 277 276 275 275 275 275 275 274 273 272 273 274 275 275 276 276 276 276 276 276 276 275
275 273 276 276 276 275 274 273 273 272 272 272 273 272 274 275 275 275 274 276 275 274 274 273 273 273 273 273 272 272 272 273 272 273 273 274 275 275 274 274 275 275 275
275 276 275 275 275 272 274 274 273 272 271 271 272 272 270 271 272 272 272 272 272 272 272 271 272 272 271 271 271 271 271 270 271 272 272 272 274 274 273 272 272 271 273
274 272 272 275 275 274 274 273 273 272 271 270 269 269 271 271 270 269 269 270 270 270 270 270 269 269 269 270 270 270 271 270 271 271 271 272 273 273 272 272 272 271 271
274 274 271 275 274 274 273 272 272 272 271 270 269 267 263 269 268 268 268 267 268 268 268 268 268 268 268 267 267 268 267 268 268 269 270 271 271 272 272 272 271 271 271
272 273 273 273 273 273 272 272 272 272 271 270 270 268 264 268 268 267 266 265 266 267 267 266 266 265 265 265 265 265 265 265 266 267 268 269 271 271 271 271 270 270 270
271 271 271 271 271 270 271 271 272 272 271 270 270 269 268 268 267 267 266 265 266 265 265 265 264 263 263 263 264 264 263 262 263 263 266 268 269 270 270 270 269 269 268
270 270 270 270 270 270 270 270 270 269 270 270 270 269 268 268 267 266 265 265 265 265 264 264 263 263 262 262 263 263 262 261 262 262 262 266 267 268 268 268 267 266 267
269 269 269 269 268 268 268 269 269 268 269 269 269 269 268 267 267 267 266 265 264 265 263 263 264 262 261 260 260 260 259 258 259 258 264 264 264 264 265 266 266 266 264
269 268 268 268 268 268 267 267 267 267 267 268 268 268 267 267 267 266 266 264 264 264 263 264 263 260 259 261 260 258 258 258 259 256 261 264 265 265 265 264 261 266 263

GFSGL_sfc_thetae_120.txt.gz
Theta_e
294 295 297 298 300 302 303 305 309 313 314 329 330 330 330 329 327 326 327 328 327 328 329 329 329 329 326 329 328 328 324 321 315 318 319 322 320 320 321 321 322 324 324
292 293 293 294 295 296 298 299 302 306 308 317 327 329 329 328 327 325 325 326 326 325 327 326 327 326 324 327 326 324 323 323 319 314 316 317 317 320 320 318 320 322 326
292 292 292 292 292 293 294 296 297 299 301 303 304 309 322 325 326 326 325 324 325 325 326 326 326 324 322 324 324 322 326 324 320 316 313 316 316 318 318 318 318 320 312
292 292 290 291 292 292 292 293 294 295 296 297 297 297 297 297 297 298 306 321 323 323 324 326 324 322 323 324 322 325 323 319 317 315 313 313 315 316 316 314 314 310 307
289 290 291 290 291 291 291 291 292 292 293 293 293 292 293 292 291 292 296 304 317 321 322 321 322 319 310 316 324 323 320 317 315 313 312 312 312 311 311 314 313 308 306
288 287 289 291 290 289 290 290 290 289 290 290 290 289 288 289 289 290 293 303 301 310 316 319 320 309 311 299 300 301 312 316 314 313 312 311 312 312 313 312 311 304 300
286 286 287 288 288 289 288 288 286 287 287 287 288 288 287 287 288 289 289 293 291 291 292 295 298 306 302 314 293 291 290 289 291 315 313 314 312 314 313 312 312 309 309
283 284 285 286 286 287 288 288 288 287 286 285 285 287 286 286 287 287 288 291 289 288 287 288 290 290 291 296 299 293 289 288 288 290 292 291 292 297 313 314 313 302 291
282 282 283 284 285 285 285 286 287 287 287 285 286 285 285 284 286 286 287 288 287 286 286 287 287 287 287 291 292 287 284 284 286 287 286 286 286 286 288 302 296 296 287
282 283 283 284 283 284 285 285 286 287 285 287 285 285 284 285 285 285 285 285 283 282 283 284 285 285 286 286 288 287 283 282 284 284 283 282 282 282 283 284 289 303 286
284 284 284 284 284 284 285 286 285 285 285 285 285 285 285 284 284 284 284 285 285 282 281 281 283 284 285 285 284 283 282 282 281 281 281 280 281 280 280 281 281 285 286
286 284 284 285 285 286 285 286 286 285 285 284 285 285 285 285 284 284 284 283 283 284 283 283 283 283 283 282 282 282 282 281 280 279 278 277 278 278 279 280 280 280 282
285 285 285 285 285 285 285 284 284 285 284 284 283 283 283 285 286 283 283 283 283 283 283 282 282 282 282 282 282 281 281 280 279 277 276 276 277 278 280 280 281 281 281
284 284 285 284 284 284 284 284 282 281 281 281 280 280 281 282 282 284 284 284 283 284 283 284 283 282 282 282 283 283 283 283 281 279 279 280 281 280 279 280 279 279 278
283 283 283 283 283 282 283 281 280 279 278 278 278 279 278 278 279 280 280 281 282 282 284 284 283 283 281 282 282 281 282 282 281 281 281 281 280 280 280 282 281 281 279
280 281 281 282 282 281 281 281 277 277 276 276 277 277 279 278 278 279 278 278 279 280 282 281 280 280 280 280 280 280 281 280 281 281 281 280 279 279 278 279 280 279 278
279 279 280 280 280 279 279 279 278 280 277 276 275 275 276 276 276 277 277 278 278 281 281 280 279 279 279 279 279 279 278 278 280 280 280 280 279 278 278 277 277 277 276
279 278 279 280 280 279 279 278 278 277 277 277 277 275 274 274 275 275 276 279 279 279 278 278 277 278 278 278 278 278 278 279 278 279 279 279 279 279 278 277 277 276 276
278 278 278 280 279 278 279 279 278 277 277 276 276 276 275 274 275 274 275 277 276 276 276 276 276 276 276 277 277 277 277 276 277 278 278 278 278 278 277 276 275 275 276
277 276 276 278 278 278 278 277 277 276 276 275 275 273 273 275 274 274 274 274 274 273 274 274 274 274 274 275 275 275 276 276 276 277 277 277 278 278 276 276 276 275 275
277 277 275 277 277 276 276 276 276 275 275 274 274 271 268 273 272 272 272 271 271 272 272 272 272 272 272 273 273 273 273 274 274 275 276 276 276 276 276 276 275 275 274
275 275 275 275 275 275 274 275 275 274 274 273 273 273 269 273 272 271 271 270 270 271 271 271 271 270 269 269 270 271 270 271 271 272 273 274 275 275 275 274 274 274 274
274 274 274 274 274 273 274 274 274 274 274 273 272 272 272 271 271 271 270 270 270 269 269 270 269 268 268 268 268 268 267 267 268 268 271 272 273 274 274 273 273 273 272
273 273 272 273 273 272 272 272 272 272 272 272 272 272 271 271 270 270 270 269 269 269 269 268 267 265 266 267 268 267 266 265 267 268 268 270 272 272 272 272 271 269 271
273 272 272 272 271 271 271 271 271 271 271 272 272 272 271 271 270 270 270 269 268 268 266 267 267 265 264 263 263 263 261 261 262 262 268 268 267 267 268 270 269 270 268
273 272 272 272 271 271 271 270 270 270 270 271 271 270 270 270 270 269 269 268 268 268 266 268 266 262 262 264 264 261 261 260 262 260 265 268 268 269 269 267 264 270 267

GFSGL_sfc_thetae_123.txt.gz
Theta_e
294 295 297 299 301 300 301 302 306 310 309 312 322 332 332 331 330 330 329 330 330 328 329 330 330 332 331 330 330 331 327 325 321 325 326 328 327 326 325 323 323 323 320
293 293 295 295 295 295 296 298 302 303 304 303 307 307 318 327 329 327 326 327 328 328 328 327 328 328 328 328 328 327 326 326 325 317 323 322 323 324 323 321 321 323 322
293 293 292 292 292 292 293 293 295 296 297 297 298 298 297 297 298 300 303 319 325 326 327 327 327 327 326 327 326 325 326 323 325 320 319 323 322 322 319 320 319 321 319
291 292 291 291 291 292 292 292 292 292 292 293 294 293 294 293 292 293 297 301 307 317 325 325 326 325 324 324 324 324 324 324 325 321 319 316 315 318 318 316 314 317 307
290 290 292 293 293 292 291 290 290 290 290 291 291 290 290 290 290 291 295 301 305 305 309 322 324 321 311 314 322 322 322 321 320 318 315 314 313 313 312 315 314 308 303
288 288 291 291 291 291 289 290 289 289 289 289 289 289 288 288 288 289 292 294 294 293 294 298 301 305 300 300 302 300 310 319 318 315 315 312 312 314 314 314 312 303 300
285 286 288 289 289 290 291 289 288 287 287 286 287 287 286 286 287 288 289 290 289 288 287 289 292 293 293 294 298 292 290 289 288 308 314 313 314 314 314 312 311 307 308
284 284 286 287 287 288 288 288 288 288 287 286 286 286 286 285 286 287 287 288 286 286 285 286 286 288 289 290 296 291 288 287 287 289 289 288 287 289 302 315 313 306 294
283 283 284 285 285 286 286 286 288 287 287 286 286 286 285 285 286 285 288 286 284 284 284 284 285 285 286 289 291 286 285 285 286 286 286 285 285 286 286 299 297 298 287
285 285 285 286 285 285 286 286 287 288 286 288 286 286 285 285 285 285 286 286 285 284 284 283 284 284 285 285 286 286 284 282 283 283 283 283 283 282 283 283 285 299 288
288 287 287 286 286 286 286 288 287 287 287 286 286 286 285 285 285 285 284 284 284 284 284 283 284 284 284 284 283 282 282 283 282 281 281 281 281 281 281 281 281 283 286
288 287 287 287 288 288 287 287 286 286 285 285 285 286 287 285 284 283 284 284 284 284 283 284 284 284 284 283 283 283 282 282 281 279 278 278 278 279 280 281 281 282 283
287 286 287 286 287 287 286 286 284 284 284 283 282 283 283 285 284 282 283 283 284 284 285 284 284 284 284 283 283 283 283 283 281 279 278 278 279 281 282 281 282 282 282
285 285 285 285 285 285 285 283 282 280 280 279 279 279 280 281 281 282 282 283 283 284 284 286 285 284 284 284 284 284 284 283 283 282 281 281 283 283 282 283 282 281 279
283 283 283 284 284 283 284 282 281 279 278 277 277 278 277 276 278 279 280 281 282 282 284 285 284 283 283 283 283 283 283 284 283 283 281 281 281 281 281 283 283 282 279
281 281 282 283 283 283 282 282 278 278 277 277 276 276 277 277 277 278 279 279 280 282 283 281 281 281 281 281 281 281 281 280 281 282 282 281 280 280 279 280 281 280 279
279 280 281 282 281 281 280 280 279 281 279 278 277 277 276 276 276 277 278 280 280 281 280 280 279 279 280 280 280 280 279 280 281 281 280 280 280 280 280 279 279 279 278
278 279 279 280 280 280 280 280 280 279 278 279 279 277 276 276 276 277 277 280 279 279 279 278 277 278 278 278 278 277 278 279 279 279 279 279 280 279 279 278 278 278 277
279 279 279 280 280 280 280 279 279 279 278 278 279 278 276 275 277 277 276 276 276 275 276 276 276 275 275 276 276 277 278 277 278 278 279 278 279 279 278 277 276 277 278
279 278 278 278 279 279 279 278 278 277 277 277 277 275 274 274 275 275 275 274 274 273 273 274 274 274 274 274 276 276 276 276 277 277 277 278 278 278 277 277 277 277 276
278 278 277 278 278 277 277 277 276 276 276 276 276 273 270 272 274 273 273 272 272 272 272 272 273 272 272 272 273 273 273 274 274 275 275 276 276 276 277 277 276 276 276
277 277 276 276 276 276 275 275 276 275 275 275 275 275 273 274 273 273 272 271 272 271 271 271 271 271 270 270 270 270 271 270 271 271 273 274 275 275 275 275 275 275 275
276 275 275 275 275 274 274 275 274 274 274 274 274 274 274 273 273 272 272 271 271 271 270 270 269 269 269 270 270 269 268 267 269 269 270 273 273 273 274 274 273 273 272
276 275 274 274 274 273 274 273 273 273 273 273 274 274 273 273 273 272 272 271 270 271 270 269 269 266 266 267 268 267 265 264 266 268 269 270 272 272 273 272 271 270 271
275 275 274 273 273 273 273 273 272 272 272 273 272 272 272 272 272 272 272 271 270 269 269 269 268 268 266 265 264 263 262 262 263 262 268 270 269 269 268 270 269 270 269
275 275 274 274 273 273 273 272 272 272 271 271 271 272 272 272 272 271 271 270 270 269 269 269 268 265 265 267 264 262 261 261 262 262 264 269 268 269 269 268 268 270 268

GFSGL_sfc_thetae_126.txt.gz
Theta_e
293 294 293 294 296 296 297 299 301 301 301 303 305 306 307 313 321 329 330 330 330 330 330 328 327 327 323 322 327 326 325 323 320 321 322 323 323 322 322 321 323 324 323
293 291 292 293 293 293 293 295 296 296 296 296 298 299 299 297 299 302 306 318 325 326 328 328 324 324 322 325 327 326 325 326 323 320 321 320 319 321 322 322 322 324 325
292 291 289 289 290 290 291 292 292 293 293 293 293 293 293 294 294 296 299 302 307 312 321 325 325 323 322 324 325 325 324 324 324 322 320 320 319 320 318 322 322 322 322
290 289 289 288 288 290 289 289 290 291 291 291 290 290 290 291 292 294 299 302 302 303 304 305 307 310 318 325 325 325 325 323 322 321 320 320 317 319 318 317 316 318 308
287 288 288 288 290 289 288 288 288 288 288 289 288 288 288 289 290 292 295 294 293 293 295 295 297 296 294 294 300 315 323 321 321 319 318 315 314 312 313 315 315 315 304
286 287 288 288 289 289 288 288 288 287 287 287 287 286 285 286 288 289 290 290 289 288 288 289 293 292 291 291 292 292 292 307 318 316 315 313 314 314 315 314 313 304 301
284 285 286 287 287 288 288 288 287 286 286 286 286 286 285 285 287 288 288 287 286 285 285 285 287 288 288 289 292 290 288 287 285 294 306 311 312 313 314 312 313 307 308
284 284 285 286 286 286 286 287 286 286 285 285 284 285 284 285 286 287 288 287 285 284 284 284 284 284 285 288 291 288 286 285 285 286 285 285 285 286 289 303 312 308 295
284 283 285 285 285 286 285 286 286 286 286 285 285 283 283 283 285 285 286 286 285 284 285 284 284 283 285 286 287 287 286 285 286 286 286 285 285 285 285 291 296 297 288
285 285 284 285 284 284 284 285 286 286 285 286 285 284 284 282 284 285 284 283 283 283 284 283 284 284 285 284 282 282 281 281 282 283 284 284 284 284 284 283 285 288 287
287 286 285 285 284 284 284 283 283 284 283 283 283 284 283 282 282 283 284 283 283 282 282 282 283 284 284 284 284 282 281 281 281 280 280 281 281 282 282 283 283 284 285
286 285 284 285 285 284 283 281 280 280 280 279 279 280 282 281 281 282 282 283 283 283 282 283 284 285 284 284 283 284 284 283 282 280 280 279 280 280 281 282 282 282 283
284 283 284 283 284 283 282 280 278 277 277 276 276 276 277 278 277 280 281 281 282 282 283 284 285 285 285 283 284 284 282 282 281 280 279 280 281 282 283 283 282 282 282
282 282 282 282 282 282 282 281 278 276 275 275 274 274 274 274 274 276 278 278 280 281 282 284 283 283 283 283 281 281 281 282 281 280 280 281 282 281 281 283 281 281 279
281 281 280 282 281 281 280 279 279 276 276 274 273 273 272 271 274 277 278 278 278 280 282 282 280 280 279 280 280 279 279 279 280 281 280 279 279 280 279 281 281 280 277
278 279 279 280 280 279 279 279 279 277 278 278 278 275 274 277 278 278 279 280 281 281 280 278 277 277 277 277 277 277 277 277 278 278 278 279 279 278 278 279 280 279 278
277 279 278 279 279 278 278 278 277 280 279 278 278 277 277 277 278 278 278 279 280 279 275 274 274 274 275 275 275 274 274 276 278 278 277 278 278 279 278 278 278 277 276
277 278 277 277 278 278 277 277 277 276 275 276 279 276 276 276 278 278 277 276 273 274 273 273 272 272 273 274 273 274 275 275 275 277 276 275 277 275 275 275 276 275 276
278 277 276 277 277 277 277 277 276 276 275 275 276 275 272 275 277 277 276 271 270 271 271 272 271 271 271 271 273 272 274 273 274 275 275 276 275 273 271 273 272 271 272
276 275 274 276 276 276 276 275 274 274 274 274 274 272 270 271 271 271 270 268 268 269 269 270 271 269 269 269 270 270 270 271 271 272 273 270 274 274 270 270 270 269 271
276 276 273 276 275 275 274 273 273 274 273 273 273 269 267 269 270 269 271 267 267 268 268 269 269 268 267 267 268 268 269 268 267 268 269 271 272 268 273 273 271 271 271
275 275 275 274 275 274 273 273 273 272 272 272 272 273 272 269 271 268 270 268 268 267 267 267 268 267 266 267 267 265 265 264 265 265 266 268 271 271 272 268 270 270 270
274 275 274 274 274 272 272 273 272 271 271 271 271 271 273 272 270 268 269 268 266 266 268 265 264 261 263 265 266 263 261 260 262 264 264 266 269 268 270 268 268 266 265
274 274 274 273 273 272 272 271 271 270 270 270 271 271 271 271 271 271 269 269 265 264 266 263 265 263 261 259 261 262 260 258 260 260 260 262 266 267 267 268 267 265 265
274 273 273 273 272 272 271 272 271 271 271 271 270 270 270 271 270 269 269 269 266 263 264 264 265 262 261 260 258 258 256 257 256 257 261 262 264 265 264 264 263 266 263
273 273 273 273 273 272 272 272 271 271 270 270 269 268 269 270 270 269 269 268 267 265 263 265 266 263 261 263 260 257 256 256 256 257 260 265 262 263 263 265 263 266 264

GFSGL_sfc_thetae_129.txt.gz
Theta_e
288 290 291 293 293 294 294 295 297 300 300 299 301 301 302 303 307 312 318 324 328 328 328 327 327 327 327 327 321 320 318 317 314 321 323 322 320 323 322 323 323 321 321
286 286 290 291 291 290 290 292 293 294 295 294 294 295 295 298 300 303 305 308 311 311 318 324 325 325 324 322 319 319 320 321 321 317 320 319 319 321 323 322 322 323 322
286 285 289 289 289 289 287 288 289 290 290 290 291 291 291 292 295 299 300 300 301 301 301 305 303 302 302 306 316 321 323 323 322 319 320 320 321 320 319 320 321 321 322
287 288 287 287 289 288 288 287 286 287 286 287 287 288 289 289 291 293 293 294 295 295 295 297 295 294 294 295 300 302 312 322 323 321 320 320 320 317 320 318 317 319 319
286 286 286 288 288 288 287 287 287 286 286 286 286 286 287 288 288 289 290 289 289 289 290 291 292 290 290 291 294 294 295 303 317 320 319 318 317 313 316 317 317 315 314
285 285 286 287 287 286 286 285 285 285 285 285 285 285 285 286 288 288 287 286 286 286 285 287 289 288 288 289 291 289 288 291 296 299 311 316 318 316 314 314 314 311 305
284 284 285 286 286 286 286 286 285 284 284 284 283 283 284 285 287 288 287 286 285 284 284 284 285 286 286 288 290 289 287 287 284 289 291 288 289 287 289 309 313 312 311
283 284 284 284 284 285 285 285 285 285 283 283 282 282 282 284 286 286 286 285 284 284 284 284 284 284 285 285 286 287 286 285 285 286 285 285 285 285 286 289 291 294 299
282 283 283 283 282 282 282 283 283 284 284 283 282 281 280 281 285 285 284 284 283 283 283 284 284 283 284 285 282 283 282 282 285 286 286 286 285 285 285 288 289 290 290
282 281 282 283 281 279 279 280 281 281 281 281 281 279 280 279 283 284 283 282 282 282 283 284 285 283 284 284 282 281 279 279 281 281 282 283 284 283 283 283 282 284 286
283 283 283 282 281 279 278 278 278 278 277 277 277 277 276 277 278 282 283 280 281 282 282 282 283 285 284 284 284 282 282 280 277 279 280 282 283 283 283 282 282 281 281
282 281 281 281 282 280 277 277 276 275 274 274 274 274 275 274 278 279 281 282 282 281 281 283 283 285 285 283 282 283 283 277 277 277 278 279 279 280 282 283 282 282 282
281 279 280 280 280 280 278 276 275 274 273 272 272 271 272 273 274 278 279 280 281 279 282 283 284 284 283 281 282 281 279 280 278 278 278 278 279 280 281 282 281 282 282
279 279 279 279 278 277 278 277 274 273 273 273 271 268 268 271 273 275 276 277 278 279 281 280 278 280 275 275 275 277 276 277 277 278 277 273 275 277 277 280 277 278 278
278 278 277 278 277 277 276 274 275 272 275 272 267 267 266 270 274 277 278 279 277 278 279 274 273 274 273 273 274 274 275 275 275 274 275 273 272 272 274 275 277 275 277
276 276 276 276 276 276 276 276 279 276 279 279 278 271 268 276 279 279 278 278 279 278 272 269 268 269 272 270 270 270 270 271 275 275 272 274 276 274 275 276 275 274 275
274 276 275 276 276 275 275 275 272 275 279 279 278 278 277 277 278 278 276 276 276 274 271 268 262 265 268 271 272 272 273 272 274 274 273 274 275 275 275 275 275 275 275
270 273 271 271 271 271 270 270 268 266 265 268 274 275 276 277 277 276 275 272 268 270 269 269 268 267 269 269 270 271 272 271 272 274 273 273 273 272 271 272 273 270 273
273 270 265 267 267 266 268 268 265 265 265 264 265 267 268 275 275 275 273 263 262 266 267 268 269 267 266 267 266 267 268 268 268 268 270 271 272 272 266 269 269 266 269
270 269 268 269 269 268 267 266 268 268 268 266 265 266 268 265 260 258 260 256 257 261 262 265 267 267 264 265 264 265 266 265 265 266 265 266 270 271 269 267 267 265 269
267 270 268 271 269 268 266 267 267 266 266 266 265 262 265 267 266 260 262 259 259 260 258 261 262 263 263 264 265 261 262 260 261 262 264 265 267 269 270 270 269 269 269
269 271 271 269 270 266 266 268 266 265 266 265 264 267 265 264 270 267 263 259 257 260 261 259 259 260 259 262 262 253 255 254 256 259 261 262 265 267 269 265 265 265 266
269 268 270 271 268 267 264 266 264 261 262 261 262 264 263 261 263 265 265 262 262 259 259 258 256 257 256 255 256 255 254 254 256 254 257 259 261 265 266 264 263 263 263
270 267 269 269 267 267 261 260 262 263 264 261 258 260 259 260 260 261 260 263 262 257 255 256 257 258 257 253 253 255 256 252 253 254 255 259 260 264 263 264 263 260 260
266 265 264 266 266 265 267 265 264 264 265 266 263 260 261 259 261 259 259 261 264 259 258 257 257 260 258 254 254 256 253 254 252 253 259 260 259 259 258 259 261 263 261
268 269 269 269 269 268 267 266 266 266 267 266 265 266 268 266 262 259 258 258 259 259 258 258 262 261 258 258 256 256 254 253 253 255 255 258 256 257 259 257 260 262 261

GFSGL_sfc_thetae_132.txt.gz
Theta_e
286 287 288 288 290 292 293 293 294 296 298 297 297 298 299 302 311 324 324 326 327 327 327 326 326 326 325 325 324 324 322 316 310 312 317 320 321 323 324 323 325 324 323
285 286 286 287 287 288 290 291 291 290 291 293 294 294 293 297 299 303 306 306 306 306 307 306 304 312 319 317 323 323 321 318 315 312 315 319 321 323 324 323 323 325 325
285 285 286 285 286 286 288 289 291 290 289 289 290 290 290 291 293 295 296 299 299 299 298 297 297 298 297 299 305 307 313 319 319 316 316 318 320 317 319 320 321 322 324
285 285 285 285 285 285 287 287 288 286 286 286 287 287 287 288 289 290 290 289 291 292 293 292 290 291 291 293 299 298 301 304 311 319 319 319 318 319 321 320 318 320 320
285 285 284 285 285 286 286 285 285 285 285 285 285 285 285 285 285 287 287 286 287 287 288 289 288 289 290 291 292 292 293 297 301 306 311 317 318 317 316 319 318 319 319
283 283 284 285 285 285 285 284 284 283 283 283 283 284 284 285 286 286 285 285 285 285 284 286 287 287 287 290 289 288 287 287 290 294 298 297 297 292 292 295 313 315 310
282 282 281 282 282 283 284 284 282 281 281 280 281 282 282 284 286 286 285 284 284 284 283 284 284 285 285 286 288 287 286 286 284 287 288 286 287 286 287 290 296 298 309
282 281 280 279 279 281 281 281 282 281 278 278 279 280 281 283 285 285 285 284 283 283 284 283 283 283 284 284 283 283 282 282 284 285 284 284 284 285 285 286 288 290 294
281 280 280 279 278 277 277 277 278 278 278 276 276 277 277 280 284 284 283 283 283 283 284 285 283 283 284 285 283 282 280 279 283 285 285 285 285 285 285 285 283 285 288
280 281 280 279 277 276 276 276 276 277 276 276 274 274 277 276 282 283 282 281 281 281 283 283 285 283 284 284 282 281 280 279 276 276 278 280 283 284 284 282 281 281 284
280 281 280 279 278 277 277 277 275 274 274 273 273 273 273 276 277 282 282 279 279 280 281 281 283 284 283 283 282 281 280 276 274 274 275 278 277 281 282 283 282 280 279
280 280 279 279 280 278 276 276 275 274 273 272 272 273 274 274 279 280 282 281 281 279 279 280 281 282 282 282 280 281 280 277 276 279 278 278 279 279 279 278 274 275 278
278 278 278 278 278 278 276 275 273 273 272 272 272 271 272 274 275 278 280 280 280 278 280 279 280 279 278 276 279 278 274 276 278 277 277 274 271 274 273 279 273 273 275
277 277 278 277 277 277 277 276 274 272 272 272 271 269 268 273 274 275 276 277 277 276 274 273 272 275 271 271 273 273 273 272 268 269 271 269 270 270 271 270 269 272 269
276 276 276 277 276 276 277 275 276 274 275 272 267 266 266 269 274 276 275 275 274 274 269 269 269 269 269 270 270 271 272 272 272 272 268 271 269 270 272 271 271 270 272
275 275 275 275 275 275 275 274 278 277 279 279 278 274 269 277 278 277 276 275 275 274 269 266 265 265 267 268 268 269 271 271 272 274 272 273 272 272 273 274 273 270 269
273 275 274 274 274 273 272 271 269 272 277 278 277 277 277 277 277 276 275 273 273 271 267 266 263 263 266 267 267 268 268 269 271 271 271 272 272 273 273 273 273 273 273
268 269 268 267 265 265 262 262 262 261 261 264 271 275 275 276 276 275 273 271 264 267 266 265 266 265 265 266 266 266 267 266 266 267 268 268 269 271 270 270 270 267 271
271 267 262 264 262 262 263 263 261 262 262 261 262 267 266 274 274 273 271 260 260 262 264 264 264 264 263 264 261 261 262 262 262 263 265 265 265 268 268 268 267 265 266
265 266 264 263 262 263 262 263 264 263 263 262 262 261 264 265 264 261 256 253 255 258 258 262 262 262 259 261 258 255 258 258 259 260 261 262 263 266 268 268 266 264 268
263 266 266 267 265 265 263 263 263 261 260 260 260 258 260 262 261 264 265 259 257 258 256 259 258 256 258 257 260 254 254 248 255 257 259 261 261 263 267 267 266 266 267
268 269 269 268 269 266 265 267 264 263 264 263 262 264 262 259 260 261 261 263 259 262 261 258 258 259 258 259 257 249 250 248 250 254 255 259 261 262 265 265 261 261 264
269 267 268 269 267 266 264 265 265 263 263 264 264 265 262 261 258 260 259 257 260 260 258 257 253 256 255 253 252 253 252 252 253 250 251 256 259 261 263 264 260 259 259
268 265 267 267 267 267 266 262 262 262 262 261 259 260 261 264 264 262 260 256 259 255 252 253 257 257 257 252 251 252 255 251 251 253 255 256 258 260 261 262 262 258 258
263 262 263 265 264 262 261 262 263 263 263 264 264 263 263 262 262 265 263 261 261 256 258 256 255 258 257 256 253 255 252 253 250 251 255 258 256 257 258 256 256 260 259
264 262 262 262 261 262 262 261 261 261 262 262 261 261 261 264 264 263 264 265 263 261 257 255 256 258 258 255 256 255 253 252 251 254 249 255 253 253 255 254 256 257 259